Nnamdi Azikiwe International Airport

Airport
ICAO code: 
DNAA
IATA Code: 
ABV
Summary
ICAO Region: 
AFI
Territory: 
Location: 
Gwaska, Federal Capital Territory
Serving: 
Abuja
Elevation: 
1123 ft
Coordinates: 
Aerial View: 
9° 0' 24.012" N, 7° 15' 47.988" E
Metar
Observation
DNAA 042200Z 06005KT 4000 HZ NSC 25/21 Q1013 NOSIG
Station
ABUJA
Date/Time
2021-12-04 22:00:00
Wind direction
60°
Wind speed
05 kts
Lowest cloud amount
nil significant cloud
Temperature
25°C
Dew point
21°C
Humidity
78%
QNH
1013 hPa
Weather condition
n/a

Nnamdi Azikiwe International Airport is located in Abuja, Federal Capital Territory, Nigeria, and is the main airport serving the Nigerian capital city.

Climatology

Tropical Savanna climate (Köppen climate classification Aw)

Runways

Designator Length Width Surface Rops
4/22 3609 60 ASP Yes/Yes
Airport map: 
Aerial View: 

Accidents and Serious Incidents at or in the vicinity of DNAA

SKYbrary Partners:

Safety knowledge contributed by: